CW6538 Cattolica IT current weather conditions

sailwx.info

Wind from 173 at 4 knots gusting 5

Air temperature 5.0° C
Dewpoint 4.1° C

Last reported at 2014-Dec-20 20:49 UTC.
Time now 2014-Dec-20 21:34 UTC

Location: N 43°58' E 012°44'.
View on Google Maps.

See reports from other nearby stations

  
Tides and Currents Weather Stations Pressure Air Temp Water Temp Dewpoint Dewpoint Depression Visibility Wind Speed Wind Dir Waves Ship Positions
date/time (UTC)wind fromknots sea level pressurealtimeterstation pressurevisibilityair tempwater tempwave heightnotes
2014-Dec-20 20:49 173 4 gusting 5 5.0
2014-Dec-20 20:44 161 2 gusting 4 5.0
2014-Dec-20 20:39 161 1 gusting 5 5.0
2014-Dec-20 20:34 165 5.0
2014-Dec-20 20:24 151 1 gusting 3 5.0
2014-Dec-20 20:19 152 5.6
2014-Dec-20 20:14 152 2 gusting 4 5.6
2014-Dec-20 20:09 171 1 gusting 3 5.6
2014-Dec-20 20:04 171 0 gusting 4 5.6
2014-Dec-20 19:49 172 2 gusting 5 5.6
2014-Dec-20 19:44 188 2 gusting 6 5.6
2014-Dec-20 19:39 150 4 gusting 6 5.6
2014-Dec-20 19:34 160 2 gusting 5 5.6
2014-Dec-20 19:29 161 0 gusting 5 5.6
2014-Dec-20 19:24 161 3 gusting 5 6.1
2014-Dec-20 19:19 156 3 gusting 6 6.1
2014-Dec-20 19:14 159 4 gusting 6 6.1
2014-Dec-20 19:04 130 1 gusting 6 6.1
2014-Dec-20 18:54 153 4 gusting 6 6.1
2014-Dec-20 18:49 143 4 gusting 6 6.1
2014-Dec-20 18:44 154 3 gusting 6 6.7
2014-Dec-20 18:39 163 2 gusting 4 6.7
2014-Dec-20 18:34 169 2 gusting 5 6.7
2014-Dec-20 18:29 165 2 gusting 6 6.7
2014-Dec-20 18:24 162 4 gusting 6 6.7
2014-Dec-20 18:19 182 2 gusting 5 6.7
2014-Dec-20 18:14 176 2 gusting 4 6.7
2014-Dec-20 18:09 176 2 gusting 4 6.7
2014-Dec-20 17:54 188 6.7
2014-Dec-20 17:49 188 0 gusting 4 6.7
2014-Dec-20 17:39 169 3 gusting 6 6.7
2014-Dec-20 17:34 164 4 gusting 6 7.2
2014-Dec-20 17:29 189 3 gusting 6 7.2
2014-Dec-20 17:24 186 2 gusting 4 7.2
2014-Dec-20 17:19 186 1 gusting 4 7.2
2014-Dec-20 17:14 182 7.2
2014-Dec-20 17:09 173 3 gusting 5 7.2
2014-Dec-20 17:04 163 3 gusting 6 7.2
2014-Dec-20 16:59 198 2 gusting 5 7.2
2014-Dec-20 16:54 165 2 gusting 5 7.2
2014-Dec-20 16:49 159 3 gusting 5 7.2
2014-Dec-20 16:39 168 4 gusting 6 7.2
2014-Dec-20 16:34 169 1 gusting 5 7.8
2014-Dec-20 16:29 175 4 gusting 5 7.8
2014-Dec-20 16:24 196 2 gusting 5 7.8
2014-Dec-20 16:19 195 2 gusting 6 7.8
2014-Dec-20 16:14 168 3 gusting 6 7.2
2014-Dec-20 16:09 187 0 gusting 4 7.2
2014-Dec-20 16:04 194 2 gusting 4 7.2
2014-Dec-20 15:59 194 2 gusting 4 7.2
2014-Dec-20 15:54 194 1 gusting 4 7.2
2014-Dec-20 15:49 222 1 gusting 2 7.2
2014-Dec-20 15:44 222 1 gusting 3 7.2
2014-Dec-20 15:39 223 7.2
2014-Dec-20 15:34 223 0 gusting 1 7.2
2014-Dec-20 15:29 222 7.2
2014-Dec-20 15:24 222 7.2
2014-Dec-20 15:19 229 0 gusting 4 7.2
2014-Dec-20 15:14 180 1 gusting 4 7.2
2014-Dec-20 15:09 198 7.2
2014-Dec-20 15:04 178 1 gusting 5 7.2
2014-Dec-20 14:59 215 4 gusting 5 7.2
2014-Dec-20 14:54 203 3 gusting 5 7.2
2014-Dec-20 14:49 258 0 gusting 4 7.2
2014-Dec-20 14:44 258 1 gusting 4 7.2
2014-Dec-20 14:39 258 7.2
2014-Dec-20 14:34 257 7.2
2014-Dec-20 14:29 258 0 gusting 3 7.2
2014-Dec-20 14:24 258 7.2
2014-Dec-20 14:19 258 7.2
2014-Dec-20 14:14 258 7.2
2014-Dec-20 14:09 258 1 gusting 3 7.2
2014-Dec-20 14:04 258 7.2
2014-Dec-20 13:59 011 7.2
2014-Dec-20 13:54 011 0 gusting 3 7.2
2014-Dec-20 13:49 338 7.2
2014-Dec-20 13:44 338 7.2
2014-Dec-20 13:39 338 7.2
2014-Dec-20 13:34 321 3 gusting 5 7.2
2014-Dec-20 13:29 355 2 gusting 5 7.2
2014-Dec-20 13:24 355 3 gusting 5 7.2
2014-Dec-20 13:19 355 1 gusting 4 7.2
2014-Dec-20 13:14 355 1 gusting 2 7.2
2014-Dec-20 13:09 360 0 gusting 3 7.2
2014-Dec-20 13:04 360 7.2
2014-Dec-20 12:59 360 7.2
2014-Dec-20 12:49 360 1 gusting 3 7.2
2014-Dec-20 12:44 360 7.2
2014-Dec-20 12:39 360 2 gusting 4 7.2
2014-Dec-20 12:34 344 2 gusting 4 7.2
2014-Dec-20 12:29 065 0 gusting 5 7.2
2014-Dec-20 12:24 065 1 gusting 4 7.2
2014-Dec-20 12:19 066 1 gusting 4 7.2
2014-Dec-20 12:14 017 0 gusting 4 7.2
2014-Dec-20 12:09 017 2 gusting 4 7.2
2014-Dec-20 12:04 018 7.2
2014-Dec-20 11:54 315 0 gusting 3 7.2
2014-Dec-20 11:49 314 0 gusting 5 7.2
2014-Dec-20 11:44 314 3 gusting 5 7.2
2014-Dec-20 11:39 039 0 gusting 5 7.2
2014-Dec-20 11:34 019 3 gusting 5 7.2
2014-Dec-20 11:29 020 4 gusting 5 7.2
2014-Dec-20 11:24 005 3 gusting 5 7.8
2014-Dec-20 11:19 355 1 gusting 5 7.8
2014-Dec-20 11:14 021 1 gusting 4 7.8
2014-Dec-20 11:09 360 2 gusting 6 7.8
2014-Dec-20 11:04 015 3 gusting 6 7.8
2014-Dec-20 10:59 355 1 gusting 5 7.8
2014-Dec-20 10:54 355 7.2
2014-Dec-20 10:49 355 7.2
2014-Dec-20 10:39 355 0 gusting 5 7.2
2014-Dec-20 10:29 300 7.2
2014-Dec-20 10:24 300 0 gusting 5 7.2
2014-Dec-20 10:19 346 4 gusting 5 7.2
2014-Dec-20 10:14 029 0 gusting 4 7.2
2014-Dec-20 10:09 355 1 gusting 4 7.2
2014-Dec-20 10:04 005 0 gusting 4 7.2
2014-Dec-20 09:59 235 7.2
2014-Dec-20 09:54 234 7.2
2014-Dec-20 09:49 235 7.2
2014-Dec-20 09:44 235 1 gusting 4 6.7
2014-Dec-20 09:39 235 2 gusting 4 6.7
2014-Dec-20 09:34 235 1 gusting 4 7.2
2014-Dec-20 09:29 235 2 gusting 5 7.2
2014-Dec-20 09:24 234 2 gusting 5 7.2
2014-Dec-20 09:19 238 3 gusting 5 7.2
2014-Dec-20 09:14 263 1 gusting 4 7.2
2014-Dec-20 09:09 263 1 gusting 3 7.2
2014-Dec-20 09:04 263 1 gusting 3 7.2
2014-Dec-20 08:59 263 0 gusting 3 6.7
2014-Dec-20 08:54 263 1 gusting 4 6.7
2014-Dec-20 08:49 264 6.7
2014-Dec-20 08:44 273 1 gusting 4 6.7
2014-Dec-20 08:39 273 1 gusting 3 6.7
2014-Dec-20 08:34 277 6.7
2014-Dec-20 08:29 277 6.7
2014-Dec-20 08:24 313 0 gusting 1 6.7
2014-Dec-20 08:19 313 6.7
2014-Dec-20 08:14 313 6.7
2014-Dec-20 08:04 313 6.7
2014-Dec-20 07:59 313 6.7
2014-Dec-20 07:49 313 6.7
2014-Dec-20 07:44 232 0 gusting 2 6.7
2014-Dec-20 07:39 231 0 gusting 3 6.7
2014-Dec-20 07:34 231 6.1
2014-Dec-20 07:29 232 6.1
2014-Dec-20 07:24 231 6.1
2014-Dec-20 07:14 231 6.7
2014-Dec-20 07:04 231 6.7
2014-Dec-20 06:59 231 6.7
2014-Dec-20 06:54 232 6.7
2014-Dec-20 06:49 232 6.7
2014-Dec-20 06:39 231 6.7
2014-Dec-20 06:34 231 6.7
2014-Dec-20 06:29 231 6.7
2014-Dec-20 06:24 231 6.7
2014-Dec-20 06:19 231 6.7
2014-Dec-20 06:14 231 0 gusting 3 6.7
2014-Dec-20 06:09 231 6.7
2014-Dec-20 06:04 231 0 gusting 1 6.7
2014-Dec-20 05:59 231 6.7
2014-Dec-20 05:54 232 2 gusting 4 6.7
2014-Dec-20 05:44 235 2 gusting 5 6.7
2014-Dec-20 05:39 216 2 gusting 5 6.7
2014-Dec-20 05:29 252 1 gusting 4 7.2
2014-Dec-20 05:24 259 2 gusting 4 7.2
2014-Dec-20 05:19 259 0 gusting 4 7.2
2014-Dec-20 05:14 259 2 gusting 4 7.2
2014-Dec-20 05:09 277 1 gusting 4 7.2
2014-Dec-20 05:04 277 7.2
2014-Dec-20 04:59 277 1 gusting 3 7.2
2014-Dec-20 04:54 277 7.2
2014-Dec-20 04:44 277 0 gusting 4 7.2
2014-Dec-20 04:39 277 2 gusting 4 7.2
2014-Dec-20 04:34 277 0 gusting 6 7.2
2014-Dec-20 04:29 292 2 gusting 6 7.2
2014-Dec-20 04:24 302 2 gusting 5 7.2
2014-Dec-20 04:19 252 0 gusting 5 7.2
2014-Dec-20 04:14 252 1 gusting 5 7.2
2014-Dec-20 04:09 234 1 gusting 5 7.2
2014-Dec-20 04:04 248 7.2
2014-Dec-20 03:59 254 2 gusting 5 7.2
2014-Dec-20 03:49 273 0 gusting 5 7.8
2014-Dec-20 03:44 263 0 gusting 4 7.8
2014-Dec-20 03:39 271 1 gusting 5 7.8
2014-Dec-20 03:34 272 3 gusting 5 7.8
2014-Dec-20 03:29 304 7.8
2014-Dec-20 03:24 305 2 gusting 6 7.8
2014-Dec-20 03:19 294 1 gusting 5 7.8
2014-Dec-20 03:14 296 3 gusting 5 7.8
2014-Dec-20 03:09 331 7.2
2014-Dec-20 03:04 331 2 gusting 6 7.2
2014-Dec-20 02:59 331 1 gusting 4 7.2
2014-Dec-20 02:54 331 2 gusting 4 7.2
2014-Dec-20 02:49 331 3 gusting 4 7.2
2014-Dec-20 02:44 331 2 gusting 4 7.2
2014-Dec-20 02:39 331 7.2
2014-Dec-20 02:29 344 3 gusting 5 7.2
2014-Dec-20 02:24 344 1 gusting 5 7.2
2014-Dec-20 02:19 344 3 gusting 5 7.2
2014-Dec-20 02:14 344 3 gusting 5 7.2
2014-Dec-20 02:09 327 1 gusting 4 7.2
2014-Dec-20 02:04 327 2 gusting 4 7.2
2014-Dec-20 01:59 305 7.2
2014-Dec-20 01:54 305 1 gusting 2 7.2
2014-Dec-20 01:49 224 7.2
2014-Dec-20 01:44 224 7.2
2014-Dec-20 01:39 224 0 gusting 3 7.2
2014-Dec-20 01:34 224 7.2
2014-Dec-20 01:29 224 0 gusting 1 7.2
2014-Dec-20 01:24 224 7.2
2014-Dec-20 01:14 224 7.2
2014-Dec-20 01:09 224 7.8
2014-Dec-20 00:54 224 7.8
2014-Dec-20 00:49 224 1 gusting 4 7.8
2014-Dec-20 00:44 224 2 gusting 3 7.8
2014-Dec-20 00:34 224 7.8
2014-Dec-20 00:29 224 1 gusting 4 7.8
2014-Dec-20 00:24 224 1 gusting 4 7.8
2014-Dec-20 00:19 224 2 gusting 5 7.8
2014-Dec-20 00:14 207 2 gusting 5 7.8
2014-Dec-20 00:09 207 3 gusting 5 7.8
2014-Dec-20 00:04 225 1 gusting 6 7.8
2014-Dec-19 23:59 208 4 gusting 6 7.8
2014-Dec-19 23:54 197 4 gusting 5 8.3
2014-Dec-19 23:49 223 1 gusting 4 8.3
2014-Dec-19 23:44 223 1 gusting 4 8.3
2014-Dec-19 23:39 209 8.3
2014-Dec-19 23:34 209 2 gusting 4 8.3
2014-Dec-19 23:29 256 1 gusting 2 8.3
2014-Dec-19 23:24 257 8.3
2014-Dec-19 23:19 256 8.3
2014-Dec-19 23:14 256 8.3
2014-Dec-19 23:09 256 1 gusting 4 8.3
2014-Dec-19 23:04 212 8.3
2014-Dec-19 22:54 212 7.8
2014-Dec-19 22:49 212 7.8
2014-Dec-19 22:44 212 7.8
2014-Dec-19 22:39 212 7.8
2014-Dec-19 22:34 212 0 gusting 4 7.8
2014-Dec-19 22:29 212 0 gusting 4 7.8
2014-Dec-19 22:24 212 2 gusting 4 7.8
2014-Dec-19 22:19 212 2 gusting 4 7.8
2014-Dec-19 22:14 212 1 gusting 4 7.8
2014-Dec-19 22:09 212 1 gusting 3 7.8
2014-Dec-19 22:04 212 0 gusting 2 7.8
2014-Dec-19 21:59 212 0 gusting 3 7.8
2014-Dec-19 21:54 213 7.8
2014-Dec-19 21:49 202 2 gusting 4 7.8
2014-Dec-19 21:44 202 1 gusting 4 7.8
2014-Dec-19 21:39 202 1 gusting 4 7.8
2014-Dec-19 21:34 192 0 gusting 4 7.8
2014-Dec-19 21:29 181 2 gusting 4 8.3
2014-Dec-19 21:24 181 2 gusting 4 8.3
2014-Dec-19 21:19 170 8.3
2014-Dec-19 21:14 170 1 gusting 3 8.3
2014-Dec-19 21:04 144 3 gusting 6 8.3
2014-Dec-19 20:59 131 3 gusting 4 8.3
2014-Dec-19 20:54 188 0 gusting 4 8.9
2014-Dec-19 20:49 157 1 gusting 4 8.9
2014-Dec-19 20:44 155 1 gusting 3 8.9
2014-Dec-19 20:39 136 1 gusting 4 8.9
2014-Dec-19 20:34 147 1 gusting 4 8.9
2014-Dec-19 20:29 139 8.9
2014-Dec-19 20:24 140 8.9
2014-Dec-19 20:19 139 8.9
2014-Dec-19 20:14 139 8.9
2014-Dec-19 20:09 139 8.9
2014-Dec-19 20:04 139 8.9
2014-Dec-19 19:59 140 8.9
2014-Dec-19 19:54 139 8.9
2014-Dec-19 19:49 139 1 gusting 3 8.9
2014-Dec-19 19:44 102 1 gusting 3 8.9
2014-Dec-19 19:39 074 8.9
2014-Dec-19 19:34 074 8.9
2014-Dec-19 19:29 074 1 gusting 4 8.9
2014-Dec-19 19:24 205 8.9
2014-Dec-19 19:19 205 8.9
2014-Dec-19 19:14 205 8.9
2014-Dec-19 19:09 205 8.9
2014-Dec-19 19:04 205 0 gusting 1 9.4
2014-Dec-19 18:59 205 9.4
2014-Dec-19 18:54 205 1 gusting 2 9.4
2014-Dec-19 18:49 205 1 gusting 3 9.4
2014-Dec-19 18:44 299 9.4
2014-Dec-19 18:39 299 9.4
2014-Dec-19 18:34 298 9.4
2014-Dec-19 18:29 298 9.4
2014-Dec-19 18:24 299 9.4
2014-Dec-19 18:19 299 9.4
2014-Dec-19 18:14 298 9.4
2014-Dec-19 18:09 298 9.4
2014-Dec-19 18:04 298 9.4
2014-Dec-19 17:59 298 9.4
2014-Dec-19 17:54 299 9.4
2014-Dec-19 17:49 298 0 gusting 4 9.4
2014-Dec-19 17:44 299 2 gusting 4 9.4
2014-Dec-19 17:39 317 9.4
2014-Dec-19 17:34 317 1 gusting 4 8.9
2014-Dec-19 17:29 317 1 gusting 4 9.4
2014-Dec-19 17:24 317 0 gusting 4 9.4
2014-Dec-19 17:19 304 0 gusting 4 9.4
2014-Dec-19 17:14 315 2 gusting 4 9.4
2014-Dec-19 17:09 288 2 gusting 4 9.4
2014-Dec-19 17:04 284 9.4
2014-Dec-19 16:59 284 0 gusting 4 9.4
2014-Dec-19 16:54 284 2 gusting 5 9.4
2014-Dec-19 16:49 300 2 gusting 5 9.4
2014-Dec-19 16:39 286 2 gusting 5 9.4
2014-Dec-19 16:34 325 4 gusting 5 9.4
2014-Dec-19 16:29 329 2 gusting 6 9.4
2014-Dec-19 16:19 305 3 gusting 7 9.4
2014-Dec-19 16:14 310 3 gusting 7 9.4
2014-Dec-19 16:09 344 3 gusting 7 9.4
2014-Dec-19 16:04 338 5 gusting 6 9.4
2014-Dec-19 15:59 350 2 gusting 5 9.4
2014-Dec-19 15:54 333 1 gusting 3 9.4
2014-Dec-19 15:49 333 1 gusting 2 9.4
2014-Dec-19 15:44 333 0 gusting 2 9.4
2014-Dec-19 15:39 333 0 gusting 3 9.4
2014-Dec-19 15:34 333 0 gusting 4 9.4
2014-Dec-19 15:29 333 1 gusting 4 9.4
2014-Dec-19 15:24 333 2 gusting 4 10.0
2014-Dec-19 15:19 321 2 gusting 4 10.0
2014-Dec-19 15:14 321 2 gusting 5 10.0
2014-Dec-19 15:09 331 2 gusting 5 10.0
2014-Dec-19 15:04 330 3 gusting 6 10.0
2014-Dec-19 14:59 329 2 gusting 5 10.0
2014-Dec-19 14:54 328 3 gusting 5 10.6
2014-Dec-19 14:49 316 2 gusting 5 10.6
2014-Dec-19 14:39 340 4 gusting 6 11.1
2014-Dec-19 14:34 040 3 gusting 4 11.1
2014-Dec-19 14:29 044 1 gusting 2 11.7
2014-Dec-19 14:24 044 1 gusting 4 11.7
2014-Dec-19 14:19 044 2 gusting 4 11.7
2014-Dec-19 14:14 044 1 gusting 4 11.7
2014-Dec-19 14:09 044 0 gusting 5 11.7
2014-Dec-19 14:04 050 0 gusting 5 11.7
2014-Dec-19 13:59 032 3 gusting 6 11.7
2014-Dec-19 13:54 027 3 gusting 6 11.7
2014-Dec-19 13:49 057 4 gusting 6 11.7
2014-Dec-19 13:44 063 4 gusting 6 11.7
2014-Dec-19 13:39 034 3 gusting 6 11.7
2014-Dec-19 13:29 041 3 gusting 6 11.7
2014-Dec-19 13:24 050 2 gusting 6 11.7
2014-Dec-19 13:19 021 4 gusting 6 11.1
2014-Dec-19 13:14 034 3 gusting 8 11.7
2014-Dec-19 13:09 057 5 gusting 8 11.7
2014-Dec-19 13:04 050 5 gusting 8 11.7
2014-Dec-19 12:59 038 5 gusting 8 11.1
2014-Dec-19 12:54 046 6 gusting 7 11.1
2014-Dec-19 12:49 050 5 gusting 7 11.1
2014-Dec-19 12:39 057 4 gusting 8 10.6
2014-Dec-19 12:34 037 6 gusting 8 10.6
2014-Dec-19 12:29 011 6 gusting 7 10.6
2014-Dec-19 12:19 028 5 gusting 7 11.1
2014-Dec-19 12:09 020 5 gusting 6 11.1
2014-Dec-19 12:04 016 2 gusting 6 11.1
2014-Dec-19 11:59 052 5 gusting 6 11.1
2014-Dec-19 11:49 034 4 gusting 6 10.6
2014-Dec-19 11:44 032 4 gusting 6 10.6
2014-Dec-19 11:39 052 2 gusting 6 10.0
2014-Dec-19 11:34 030 2 gusting 6 10.0
2014-Dec-19 11:29 024 4 gusting 7 10.0
2014-Dec-19 11:24 065 4 gusting 7 9.4
2014-Dec-19 11:19 017 5 gusting 7 9.4
2014-Dec-19 11:14 034 5 gusting 6 10.0
2014-Dec-19 11:09 023 4 gusting 6 10.0
2014-Dec-19 10:59 037 4 gusting 6 10.0
2014-Dec-19 10:54 034 3 gusting 6 10.0
2014-Dec-19 10:49 017 3 gusting 6 10.0
2014-Dec-19 10:44 040 3 gusting 6 10.0
2014-Dec-19 10:39 018 3 gusting 5 10.0
2014-Dec-19 10:34 348 4 gusting 5 10.0
2014-Dec-19 10:29 038 2 gusting 5 10.0
2014-Dec-19 10:24 040 3 gusting 5 10.0
2014-Dec-19 10:14 031 1 gusting 4 11.1
2014-Dec-19 10:09 162 11.1
2014-Dec-19 10:04 162 11.1
2014-Dec-19 09:59 162 10.6
2014-Dec-19 09:54 162 10.0
2014-Dec-19 09:49 162 10.0
2014-Dec-19 09:44 162 9.4
2014-Dec-19 09:39 162 9.4
2014-Dec-19 09:34 161 8.9
2014-Dec-19 09:29 161 0 gusting 1 8.9
2014-Dec-19 09:24 161 8.3
2014-Dec-19 09:19 162 7.8
2014-Dec-19 09:14 162 7.8
2014-Dec-19 09:09 161 7.2
2014-Dec-19 09:04 162 7.2
2014-Dec-19 08:59 162 7.2
2014-Dec-19 08:54 162 0 gusting 3 7.2
2014-Dec-19 08:49 163 1 gusting 5 7.2
2014-Dec-19 08:44 157 2 gusting 5 7.2
2014-Dec-19 08:39 169 2 gusting 4 7.2
2014-Dec-19 08:34 169 2 gusting 4 7.2
2014-Dec-19 08:29 164 2 gusting 4 7.2
2014-Dec-19 08:24 220 2 gusting 4 7.2
2014-Dec-19 08:19 238 2 gusting 4 7.2
2014-Dec-19 08:14 183 2 gusting 4 7.2
2014-Dec-19 08:09 165 0 gusting 3 7.2
2014-Dec-19 08:04 166 1 gusting 2 7.2
2014-Dec-19 07:59 165 7.2
2014-Dec-19 07:54 165 7.2
2014-Dec-19 07:49 165 7.2
2014-Dec-19 07:44 165 1 gusting 5 7.2
2014-Dec-19 07:39 165 2 gusting 5 7.2
2014-Dec-19 07:34 219 7.2
2014-Dec-19 07:29 180 1 gusting 5 7.2
2014-Dec-19 07:24 179 1 gusting 5 7.2
2014-Dec-19 07:19 145 2 gusting 5 7.2
2014-Dec-19 07:14 172 3 gusting 4 7.2
2014-Dec-19 07:09 161 1 gusting 4 7.2
2014-Dec-19 07:04 161 2 gusting 4 7.2
2014-Dec-19 06:59 161 2 gusting 4 7.2
2014-Dec-19 06:54 161 2 gusting 3 7.2
2014-Dec-19 06:49 161 7.2
2014-Dec-19 06:44 161 2 gusting 4 7.2
2014-Dec-19 06:39 163 7.2
2014-Dec-19 06:29 212 2 gusting 5 7.8
2014-Dec-19 06:24 194 3 gusting 6 7.8
2014-Dec-19 06:19 202 3 gusting 5 7.8
2014-Dec-19 06:14 190 3 gusting 5 7.8
2014-Dec-19 06:09 192 0 gusting 4 7.8
2014-Dec-19 06:04 205 0 gusting 4 7.8
2014-Dec-19 05:59 204 7.8
2014-Dec-19 05:54 204 1 gusting 4 7.8
2014-Dec-19 05:49 204 1 gusting 4 7.8
2014-Dec-19 05:44 204 7.8
2014-Dec-19 05:39 204 7.8
2014-Dec-19 05:34 204 2 gusting 4 7.8
2014-Dec-19 05:29 316 7.8
2014-Dec-19 05:24 317 7.8
2014-Dec-19 05:19 316 7.8
2014-Dec-19 05:14 316 7.8
2014-Dec-19 05:09 316 7.8
2014-Dec-19 05:04 316 7.8
2014-Dec-19 04:59 316 0 gusting 4 7.8
2014-Dec-19 04:54 316 0 gusting 4 7.8
2014-Dec-19 04:49 290 0 gusting 3 7.8
2014-Dec-19 04:44 151 7.8
2014-Dec-19 04:39 151 7.8
2014-Dec-19 04:34 150 7.8
2014-Dec-19 04:29 150 7.8
2014-Dec-19 04:24 151 7.8
2014-Dec-19 04:19 151 0 gusting 1 7.8
2014-Dec-19 04:14 150 7.8
2014-Dec-19 04:09 150 7.8
2014-Dec-19 04:04 150 7.8
2014-Dec-19 03:59 151 7.2
2014-Dec-19 03:54 150 7.2
2014-Dec-19 03:49 151 7.2
2014-Dec-19 03:44 150 7.2
2014-Dec-19 03:39 150 7.2
2014-Dec-19 03:34 151 7.2
2014-Dec-19 03:29 151 7.2
2014-Dec-19 03:24 151 7.2
2014-Dec-19 03:19 150 7.2
2014-Dec-19 03:14 150 7.2
2014-Dec-19 03:09 150 7.2
2014-Dec-19 03:04 150 7.2
2014-Dec-19 02:59 150 7.2
2014-Dec-19 02:54 151 0 gusting 3 7.2
2014-Dec-19 02:49 150 1 gusting 3 7.2
2014-Dec-19 02:44 151 0 gusting 1 7.2
2014-Dec-19 02:39 151 7.2
2014-Dec-19 02:34 150 6.7
2014-Dec-19 02:29 150 0 gusting 3 6.7
2014-Dec-19 02:19 151 6.7
2014-Dec-19 02:14 151 0 gusting 2 6.7
2014-Dec-19 02:09 150 0 gusting 2 6.7
2014-Dec-19 02:04 151 6.7
2014-Dec-19 01:59 150 6.7
2014-Dec-19 01:54 150 6.7
2014-Dec-19 01:49 150 6.7
2014-Dec-19 01:44 150 6.7
2014-Dec-19 01:39 150 6.7
2014-Dec-19 01:34 150 6.7
2014-Dec-19 01:29 151 6.7
2014-Dec-19 01:24 150 6.7
2014-Dec-19 01:14 150 2 gusting 4 6.7
2014-Dec-19 01:09 209 1 gusting 2 6.1
2014-Dec-19 01:04 209 6.1
2014-Dec-19 00:59 209 0 gusting 3 6.1
2014-Dec-19 00:54 221 1 gusting 3 6.1
2014-Dec-19 00:49 223 0 gusting 3 6.1
2014-Dec-19 00:44 222 6.1
2014-Dec-19 00:39 222 6.1
2014-Dec-19 00:34 222 1 gusting 4 6.1
2014-Dec-19 00:29 227 6.1
2014-Dec-19 00:24 233 6.1
2014-Dec-19 00:19 234 0 gusting 3 6.1
2014-Dec-19 00:14 233 0 gusting 2 6.1
2014-Dec-19 00:09 233 6.1
2014-Dec-18 23:59 234 6.1
2014-Dec-18 23:54 233 0 gusting 1 6.1
2014-Dec-18 23:49 234 6.1
2014-Dec-18 23:44 234 0 gusting 3 6.1
2014-Dec-18 23:39 167 6.1
2014-Dec-18 23:34 167 6.1
2014-Dec-18 23:29 167 2 gusting 3 6.1
2014-Dec-18 23:24 167 1 gusting 2 6.1
2014-Dec-18 23:19 167 1 gusting 3 6.1
2014-Dec-18 23:14 167 1 gusting 2 6.1
2014-Dec-18 23:09 167 0 gusting 4 6.1
2014-Dec-18 23:05 168 0 gusting 4 6.1
2014-Dec-18 22:59 167 2 gusting 4 6.1
2014-Dec-18 22:54 167 2 gusting 4 6.1
2014-Dec-18 22:49 171 3 gusting 4 6.1
2014-Dec-18 22:44 171 6.1
2014-Dec-18 22:39 171 2 gusting 3 6.1
2014-Dec-18 22:34 171 1 gusting 4 6.1
2014-Dec-18 22:29 171 2 gusting 4 6.1
2014-Dec-18 22:24 171 2 gusting 3 6.7
2014-Dec-18 22:19 171 1 gusting 3 6.7
2014-Dec-18 22:14 171 2 gusting 3 6.7
2014-Dec-18 22:09 171 1 gusting 2 6.7
2014-Dec-18 22:04 171 1 gusting 3 6.7
2014-Dec-18 21:59 171 1 gusting 3 6.7
2014-Dec-18 21:54 171 1 gusting 4 6.7
2014-Dec-18 21:49 171 3 gusting 3 6.7
2014-Dec-18 21:44 171 1 gusting 1 6.7
2014-Dec-18 21:39 171 7.2
2014-Dec-18 21:34 171 7.2
2014-Dec-18 21:29 171 0 gusting 1 7.2
2014-Dec-18 21:24 171 7.2
2014-Dec-18 21:19 171 0 gusting 3 7.2
2014-Dec-18 21:14 170 0 gusting 4 7.2
2014-Dec-18 21:09 171 3 gusting 4 7.2
2014-Dec-18 21:04 150 2 gusting 3 7.2